Location: Elbart
(49.6135°N, 11.9134°E)
Time: 23:46:27
(UTC+00:00)

Cosmos 2369 Rocket - Pass Details

Date: 09 April 2020
Orbit: 829 x 852 km, 71.0° (Epoch: 24 May)

Event Time Altitude Azimuth Distance (km) Brightness Sun altitude
Rises 18:42:53 0° 323° (NW) 3,423 6.5 -7.9°
Reaches altitude 10° 18:45:42 10° 311° (NW) 2,479 6.0 -8.3°
Maximum altitude 18:50:18 26° 257° (WSW) 1,601 4.4 -9.0°
Drops below altitude 10° 18:54:53 10° 202° (SSW) 2,452 4.6 -9.7°
Sets 18:57:39 0° 190° (S) 3,377 5.2 -10.1°
